• In Latvia
  • List of Countries
  • For 7 days
  • Water Temperature
  • Satellite Maps
  • Weather Map
  • Weather Widgets
  • user-avatar
    Login

    Hourly Weather Volnovaha

    Today, 23 September, Sunday

    Time Temperature Precipitation Wind Pressure Humidity
    00:00 +19°C° 0 mm 2 mps 739 mmHg 52%
    01:00 +19°C° 0 mm 2 mps 738 mmHg 54%
    02:00 +19°C° 0 mm 1 mps 738 mmHg 58%
    03:00 +19°C° 0 mm 1 mps 738 mmHg 60%
    04:00 +18°C° 0 mm 1 mps 738 mmHg 62%
    05:00 +18°C° 0 mm 1 mps 737 mmHg 64%
    06:00 +19°C° 0 mm 2 mps 737 mmHg 60%
    07:00 +20°C° 0 mm 2 mps 737 mmHg 55%
    08:00 +23°C° 0 mm 2 mps 737 mmHg 50%
    09:00 +24°C° 0 mm 3 mps 737 mmHg 46%
    10:00 +25°C° 0 mm 4 mps 737 mmHg 42%
    11:00 +26°C° 0 mm 5 mps 738 mmHg 38%
    12:00 +23°C° 0.3 mm 5 mps 738 mmHg 47%
    13:00 +21°C° 0.3 mm 5 mps 738 mmHg 55%
    14:00 +19°C° 0 mm 6 mps 738 mmHg 67%
    15:00 +17°C° 0.8 mm 5 mps 738 mmHg 71%
    16:00 +16°C° 0.8 mm 5 mps 738 mmHg 75%
    17:00 +15°C° 0.8 mm 4 mps 739 mmHg 79%
    18:00 +14°C° 0 mm 4 mps 739 mmHg 78%
    19:00 +13°C° 0 mm 4 mps 739 mmHg 78%
    20:00 +12°C° 0 mm 4 mps 739 mmHg 78%
    21:00 +12°C° 0 mm 4 mps 740 mmHg 78%
    22:00 +11°C° 0 mm 3 mps 740 mmHg 78%
    23:00 +11°C° 0 mm 3 mps 740 mmHg 77%

    Tomorrow, 24 September, Monday

    Time Temperature Precipitation Wind Pressure Humidity
    00:00 +12°C° 0 mm 2 mps 740 mmHg 77%
    01:00 +10°C° 0 mm 2 mps 740 mmHg 77%
    02:00 +11°C° 0 mm 1 mps 741 mmHg 77%
    03:00 +11°C° 0 mm 1 mps 740 mmHg 77%
    04:00 +11°C° 0 mm 1 mps 740 mmHg 77%
    05:00 +10°C° 0 mm 1 mps 740 mmHg 78%
    06:00 +12°C° 0 mm 2 mps 740 mmHg 71%
    07:00 +13°C° 0 mm 2 mps 740 mmHg 65%
    08:00 +13°C° 0 mm 3 mps 740 mmHg 59%
    09:00 +15°C° 0 mm 4 mps 740 mmHg 54%
    10:00 +17°C° 0 mm 4 mps 739 mmHg 48%
    11:00 +17°C° 0 mm 5 mps 739 mmHg 43%
    12:00 +19°C° 0 mm 5 mps 738 mmHg 41%
    13:00 +19°C° 0 mm 5 mps 738 mmHg 40%
    14:00 +20°C° 0 mm 6 mps 737 mmHg 38%
    15:00 +19°C° 0 mm 5 mps 736 mmHg 43%
    16:00 +19°C° 0 mm 5 mps 736 mmHg 49%
    17:00 +17°C° 0 mm 5 mps 735 mmHg 54%
    18:00 +17°C° 0 mm 5 mps 735 mmHg 60%
    19:00 +17°C° 0 mm 5 mps 734 mmHg 65%
    20:00 +16°C° 0 mm 6 mps 734 mmHg 71%
    21:00 +17°C° 0.1 mm 6 mps 734 mmHg 75%
    22:00 +17°C° 0.1 mm 7 mps 734 mmHg 80%
    23:00 +17°C° 0.1 mm 7 mps 734 mmHg 84%

    Day after tomorrow, 25 September, Tuesday

    Time Temperature Precipitation Wind Pressure Humidity
    00:00 +16°C° 0.2 mm 7 mps 734 mmHg 82%
    01:00 +14°C° 0.2 mm 7 mps 734 mmHg 80%
    02:00 +11°C° 0.2 mm 6 mps 734 mmHg 79%
    03:00 +11°C° 1.1 mm 6 mps 734 mmHg 79%
    04:00 +10°C° 1.1 mm 6 mps 735 mmHg 80%
    05:00 +9°C° 1.1 mm 6 mps 735 mmHg 81%
    06:00 +10°C° 0.2 mm 6 mps 736 mmHg 78%
    07:00 +10°C° 0.2 mm 6 mps 736 mmHg 74%
    08:00 +11°C° 0.2 mm 6 mps 737 mmHg 70%
    09:00 +13°C° 0 mm 6 mps 737 mmHg 64%
    10:00 +14°C° 0 mm 6 mps 738 mmHg 58%
    11:00 +15°C° 0 mm 6 mps 738 mmHg 52%
    12:00 +15°C° 0 mm 6 mps 738 mmHg 49%
    13:00 +15°C° 0 mm 6 mps 738 mmHg 45%
    14:00 +16°C° 0 mm 7 mps 738 mmHg 41%
    15:00 +15°C° 0 mm 6 mps 738 mmHg 43%
    16:00 +14°C° 0 mm 6 mps 739 mmHg 44%
    17:00 +13°C° 0 mm 5 mps 739 mmHg 46%
    18:00 +12°C° 0 mm 5 mps 739 mmHg 50%
    19:00 +11°C° 0 mm 4 mps 740 mmHg 55%
    20:00 +11°C° 0 mm 4 mps 741 mmHg 59%
    21:00 +10°C° 0 mm 4 mps 741 mmHg 64%
    22:00 +8°C° 0 mm 4 mps 741 mmHg 69%
    23:00 +8°C° 0 mm 4 mps 742 mmHg 74%

    26 September, Wednesday

    Time Temperature Precipitation Wind Pressure Humidity
    00:00 +8°C° 0 mm 4 mps 742 mmHg 74%
    01:00 +7°C° 0 mm 4 mps 743 mmHg 73%
    02:00 +7°C° 0 mm 4 mps 743 mmHg 73%
    03:00 +7°C° 0 mm 4 mps 743 mmHg 73%
    04:00 +6°C° 0 mm 4 mps 744 mmHg 74%
    05:00 +6°C° 0 mm 4 mps 744 mmHg 75%
    06:00 +6°C° 0 mm 4 mps 745 mmHg 70%
    07:00 +7°C° 0 mm 4 mps 745 mmHg 66%
    08:00 +8°C° 0 mm 4 mps 746 mmHg 61%
    09:00 +10°C° 0 mm 4 mps 746 mmHg 55%
    10:00 +11°C° 0 mm 4 mps 746 mmHg 49%
    11:00 +12°C° 0 mm 4 mps 746 mmHg 42%
    12:00 +12°C° 0 mm 4 mps 746 mmHg 41%
    13:00 +12°C° 0 mm 4 mps 746 mmHg 39%
    14:00 +13°C° 0 mm 4 mps 746 mmHg 38%
    15:00 +12°C° 0 mm 3 mps 746 mmHg 38%
    16:00 +12°C° 0 mm 3 mps 747 mmHg 39%
    17:00 +11°C° 0 mm 3 mps 747 mmHg 40%
    18:00 +11°C° 0 mm 3 mps 747 mmHg 41%
    19:00 +11°C° 0 mm 3 mps 747 mmHg 43%
    20:00 +10°C° 0 mm 3 mps 748 mmHg 44%
    21:00 +9°C° 0 mm 3 mps 748 mmHg 47%
    22:00 +9°C° 0 mm 3 mps 748 mmHg 50%
    23:00 +8°C° 0 mm 3 mps 747 mmHg 53%

    27 September, Thursday

    Time Temperature Precipitation Wind Pressure Humidity
    00:00 +8°C° 0 mm 2 mps 747 mmHg 55%
    01:00 +7°C° 0 mm 2 mps 747 mmHg 57%
    02:00 +7°C° 0 mm 2 mps 747 mmHg 59%
    03:00 +6°C° 0 mm 2 mps 747 mmHg 60%
    04:00 +6°C° 0 mm 2 mps 747 mmHg 61%
    05:00 +5°C° 0 mm 2 mps 747 mmHg 62%
    06:00 +7°C° 0 mm 2 mps 747 mmHg 57%
    07:00 +8°C° 0 mm 2 mps 747 mmHg 53%
    08:00 +9°C° 0 mm 2 mps 747 mmHg 48%
    09:00 +10°C° 0 mm 2 mps 747 mmHg 43%
    10:00 +11°C° 0 mm 3 mps 747 mmHg 38%
    11:00 +13°C° 0 mm 3 mps 747 mmHg 33%
    12:00 +13°C° 0 mm 3 mps 747 mmHg 31%
    13:00 +14°C° 0 mm 4 mps 746 mmHg 29%
    14:00 +15°C° 0 mm 4 mps 746 mmHg 28%
    15:00 +14°C° 0 mm 4 mps 745 mmHg 30%
    16:00 +13°C° 0 mm 3 mps 745 mmHg 32%
    17:00 +13°C° 0 mm 3 mps 745 mmHg 33%
    18:00 +12°C° 0 mm 3 mps 745 mmHg 35%
    19:00 +11°C° 0 mm 3 mps 745 mmHg 36%
    20:00 +10°C° 0 mm 3 mps 745 mmHg 38%
    21:00 +10°C° 0 mm 3 mps 745 mmHg 38%
    22:00 +10°C° 0 mm 2 mps 744 mmHg 38%
    23:00 +9°C° 0 mm 2 mps 744 mmHg 38%

    28 September, Friday

    Time Temperature Precipitation Wind Pressure Humidity
    00:00 +9°C° 0 mm 2 mps 744 mmHg 39%
    01:00 +9°C° 0 mm 2 mps 744 mmHg 40%
    02:00 +9°C° 0 mm 2 mps 743 mmHg 40%
    03:00 +9°C° 0 mm 2 mps 743 mmHg 42%
    04:00 +9°C° 0 mm 2 mps 743 mmHg 43%
    05:00 +9°C° 0 mm 2 mps 743 mmHg 44%
    06:00 +10°C° 0 mm 2 mps 743 mmHg 42%
    07:00 +12°C° 0 mm 2 mps 743 mmHg 40%
    08:00 +14°C° 0 mm 2 mps 743 mmHg 38%
    09:00 +15°C° 0 mm 2 mps 743 mmHg 36%
    10:00 +17°C° 0 mm 2 mps 743 mmHg 35%
    11:00 +18°C° 0 mm 3 mps 742 mmHg 33%
    12:00 +19°C° 0 mm 3 mps 742 mmHg 34%
    13:00 +20°C° 0 mm 3 mps 742 mmHg 34%
    14:00 +20°C° 0 mm 3 mps 741 mmHg 34%
    15:00 +20°C° 0 mm 2 mps 741 mmHg 36%
    16:00 +19°C° 0 mm 2 mps 741 mmHg 39%
    17:00 +18°C° 0 mm 2 mps 740 mmHg 42%
    18:00 +17°C° 0 mm 2 mps 740 mmHg 44%
    19:00 +16°C° 0 mm 1 mps 740 mmHg 46%
    20:00 +15°C° 0 mm 1 mps 741 mmHg 47%
    21:00 +15°C° 0 mm 1 mps 740 mmHg 49%
    22:00 +15°C° 0 mm 1 mps 740 mmHg 50%
    23:00 +14°C° 0 mm 1 mps 740 mmHg 51%
    Show more